Weather observations for the past three days for
Houston, Houston Hobby Airport
| Date | Time (cdt) | Wind (kph) | Vis. (km) | Weather | Sky Cond. | Temperature (ºC) | Relative Humidity | Wind Chill (°C) | Heat Index (°C) | Pressure | Precipitation (cm) | ||||||
|---|---|---|---|---|---|---|---|---|---|---|---|---|---|---|---|---|---|
| Air | Dwpt | 6 hour | altimeter (cm) | sea level (mb) | 1 hr | 3 hr | 6 hr | ||||||||||
| Max. | Min. | ||||||||||||||||
| 07 | 20:53 | NE 15 | 16.09 | Overcast | BKN034 OVC055 | 25 | 18.3 | 66% | 26 | 76 | 1013.7 | ||||||
| 07 | 19:53 | NE 19 | 16.09 | Overcast | OVC030 | 25 | 18.3 | 66% | 26 | 76 | 1013.6 | ||||||
| 07 | 18:53 | NE 15 | 16.09 | Mostly Cloudy | FEW030 BKN200 BKN300 | 25.6 | 18.9 | 26.1 | 22.2 | 67% | 27 | 76 | 1013.6 | ||||
| 07 | 17:53 | NE 15 | 16.09 | Mostly Cloudy | SCT032 BKN160 BKN250 | 25.6 | 18.9 | 67% | 27 | 75.97 | 1013.4 | ||||||
| 07 | 16:53 | NE 17 | 16.09 | Mostly Cloudy | FEW031 BKN150 BKN250 | 26.1 | 18.3 | 62% | 27 | 75.97 | 1013.4 | ||||||
| 07 | 15:53 | NE 15 | 16.09 | Overcast | SCT029 OVC039 | 25 | 17.8 | 64% | 26 | 76 | 1013.8 | ||||||
| 07 | 14:53 | NE 15 | 16.09 | Overcast | BKN029 OVC040 | 25 | 17.8 | 64% | 26 | 76.07 | 1014.5 | ||||||
| 07 | 13:53 | N 13 | 16.09 | Overcast | FEW035 SCT150 OVC250 | 23.9 | 17.2 | 66% | 25 | 76.12 | 1015.2 | ||||||
| 07 | 12:53 | NE 17 | 16.09 | Overcast | SCT025 OVC045 | 21.7 | 16.1 | 22.2 | 18.3 | 71% | 76.15 | 1015.8 | |||||
| 07 | 11:53 | NE 15 | 16.09 | Overcast | BKN020 BKN040 OVC250 | 20 | 15 | 73% | 76.2 | 1016.2 | |||||||
| 07 | 10:53 | N 20 | 16.09 | Overcast | OVC017 | 18.9 | 15 | 78% | 76.17 | 1015.8 | |||||||
| 07 | 09:53 | N 17 | 16.09 | Overcast | OVC013 | 18.3 | 15 | 81% | 76.17 | 1016.0 | |||||||
| 07 | 08:53 | N 22 | 16.09 | Overcast | BKN013 OVC020 | 18.9 | 15.6 | 81% | 76.15 | 1015.7 | |||||||
| 07 | 07:53 | N 20 | 16.09 | Overcast | OVC014 | 18.9 | 15.6 | 81% | 76.15 | 1015.8 | |||||||
| 07 | 06:53 | NE 19 | 12.87 | Overcast | BKN014 OVC020 | 19.4 | 16.1 | 22.2 | 19.4 | 81% | 76.05 | 1014.3 | |||||
| 07 | 05:53 | NE 17 | 11.27 | Overcast | BKN014 OVC020 | 20 | 17.2 | 84% | 76 | 1013.7 | |||||||
| 07 | 04:53 | NE 15 | 11.27 | Overcast | BKN014 OVC021 | 20.6 | 17.8 | 84% | 75.95 | 1013.0 | |||||||
| 07 | 03:53 | N 20 | 11.27 | Overcast | BKN015 OVC023 | 20.6 | 17.8 | 84% | 75.95 | 1013.0 | |||||||
| 07 | 02:53 | N 24 | 12.87 | Overcast | BKN016 OVC023 | 21.1 | 17.8 | 82% | 75.92 | 1012.7 | |||||||
| 07 | 01:53 | N 22 | 12.87 | Overcast | BKN017 OVC023 | 21.1 | 17.8 | 82% | 75.97 | 1013.2 | |||||||
| 07 | 00:53 | N 22 | 11.27 | Overcast | BKN015 OVC023 | 22.2 | 18.9 | 27.8 | 22.2 | 82% | 75.92 | 1012.6 | 0.03 | ||||
| 06 | 23:53 | N 17 | 9.66 | Overcast with Haze | BKN016 OVC023 | 22.8 | 20 | 84% | 75.92 | 1012.5 | |||||||
| 06 | 21:53 | S 6 | 11.27 | Mostly Cloudy | SCT010 BKN022 BKN090 | 26.1 | 23.9 | 88% | 28 | 75.79 | 1010.9 | ||||||
| 06 | 20:53 | S 9 | 9.66 | Fog/Mist | FEW016 SCT090 BKN250 | 26.1 | 23.9 | 88% | 28 | 75.74 | 1010.3 | ||||||
| 06 | 19:53 | S 11 | 9.66 | Mostly Cloudy with Haze | FEW014 BKN090 BKN250 | 27.2 | 23.9 | 82% | 30 | 75.67 | 1009.3 | ||||||
| 06 | 18:53 | S 17 | 9.66 | Overcast with Haze | FEW030 SCT100 OVC250 | 27.8 | 23.9 | 29.4 | 27.8 | 79% | 32 | 75.64 | 1008.9 | ||||
| 06 | 17:53 | S 17 | 8.05 | Overcast with Haze | SCT025 BKN080 OVC250 | 27.8 | 23.9 | 79% | 32 | 75.64 | 1008.9 | ||||||
| 06 | 16:53 | S 15 | 9.66 | Overcast with Haze | BKN022 BKN036 OVC250 | 29.4 | 23.9 | 72% | 34 | 75.59 | 1008.4 | ||||||
| 06 | 15:53 | S 19 | 9.66 | Overcast with Haze | SCT018 BKN050 BKN150 OVC250 | 28.9 | 24.4 | 77% | 34 | 75.62 | 1008.7 | ||||||
| 06 | 14:53 | S 19 | 9.66 | Overcast with Haze | BKN020 BKN150 OVC250 | 29.4 | 24.4 | 75% | 35 | 75.67 | 1009.2 | ||||||
| 06 | 13:53 | S 20 | 8.05 | Overcast with Haze | BKN020 OVC050 | 27.8 | 24.4 | 82% | 32 | 75.72 | 1009.9 | ||||||
| 06 | 12:53 | SW 11 | 12.87 | Overcast | BKN020 OVC250 | 28.3 | 23.9 | 28.9 | 24.4 | 77% | 32 | 75.77 | 1010.6 | ||||
| 06 | 11:53 | S 11 | 12.87 | Overcast | BKN011 BKN030 OVC250 | 27.2 | 23.9 | 82% | 30 | 75.82 | 1011.2 | ||||||
| 06 | 10:53 | S 9 | 16.09 | Overcast | BKN010 OVC020 | 26.1 | 23.9 | 88% | 28 | 75.79 | 1010.9 | ||||||
| 06 | 09:53 | S 13 | 11.27 | Overcast | SCT010 SCT030 OVC250 | 26.1 | 23.9 | 88% | 28 | 75.72 | 1010.0 | ||||||
| 06 | 08:53 | S 15 | 11.27 | Overcast | FEW008 SCT035 OVC250 | 26.1 | 23.9 | 88% | 28 | 75.72 | 1010.0 | ||||||
| 06 | 07:53 | SE 15 | 11.27 | Overcast | FEW007 SCT045 OVC250 | 25 | 23.9 | 94% | 26 | 75.74 | 1010.1 | ||||||
| 06 | 06:53 | S 13 | 11.27 | Overcast | OVC008 | 24.4 | 23.3 | 25 | 24.4 | 94% | 24 | 75.69 | 1009.5 | ||||
| 06 | 05:53 | S 15 | 16.09 | Overcast | FEW010 FEW015 OVC250 | 24.4 | 23.3 | 94% | 24 | 75.64 | 1009.0 | ||||||
| 06 | 04:53 | SE 11 | 16.09 | Mostly Cloudy | FEW008 SCT029 BKN045 | 24.4 | 23.3 | 94% | 24 | 75.64 | 1008.8 | ||||||
| 06 | 03:53 | S 13 | 12.87 | Mostly Cloudy | FEW012 SCT018 BKN250 | 24.4 | 22.8 | 91% | 24 | 75.64 | 1009.0 | ||||||
| 06 | 02:53 | S 17 | 12.87 | Mostly Cloudy | FEW014 SCT048 BKN250 | 24.4 | 22.8 | 91% | 24 | 75.67 | 1009.3 | ||||||
| 06 | 01:53 | S 22 | 12.87 | Overcast | FEW013 SCT018 OVC048 | 25 | 23.3 | 90% | 26 | 75.72 | 1009.9 | ||||||
| 06 | 00:53 | S 15 | 12.87 | Overcast | FEW019 OVC049 | 25 | 23.3 | 26.7 | 25 | 90% | 26 | 75.69 | 1009.7 | ||||
| 05 | 23:53 | S 19 | 12.87 | Overcast | SCT014 BKN021 OVC034 | 25 | 22.8 | 88% | 26 | 75.72 | 1010.0 | ||||||
| 05 | 22:53 | S 15 | 12.87 | Light Drizzle | SCT012 BKN024 OVC038 | 25 | 22.8 | 88% | 26 | 75.69 | 1009.6 | ||||||
| 05 | 21:53 | S 15 | 12.87 | Overcast | BKN015 OVC040 | 25.6 | 22.8 | 85% | 27 | 75.67 | 1009.2 | ||||||
| 05 | 20:53 | S 22 | 16.09 | Overcast | SCT014 BKN028 OVC040 | 25.6 | 22.8 | 85% | 27 | 75.62 | 1008.4 | ||||||
| 05 | 19:53 | S 22 | 16.09 | Overcast | SCT016 BKN024 OVC042 | 26.1 | 22.8 | 82% | 28 | 75.54 | 1007.6 | ||||||
| 05 | 18:53 | S 26 G 35 | 16.09 | Overcast | SCT018 BKN026 OVC042 | 26.7 | 22.8 | 28.3 | 26.1 | 79% | 29 | 75.54 | 1007.5 | ||||
| 05 | 17:53 | S 20 | 16.09 | Overcast | BKN026 OVC045 | 27.2 | 22.8 | 77% | 30 | 75.54 | 1007.5 | ||||||
| 05 | 16:53 | S 26 | 16.09 | Overcast | BKN024 OVC048 | 27.8 | 22.2 | 72% | 30 | 75.57 | 1007.7 | ||||||
| 05 | 15:53 | S 28 G 41 | 16.09 | Mostly Cloudy | BKN024 BKN048 | 28.3 | 22.2 | 70% | 31 | 75.59 | 1008.3 | ||||||
| 05 | 14:53 | S 22 G 39 | 16.09 | Overcast | SCT025 OVC045 | 27.8 | 22.8 | 74% | 31 | 75.64 | 1009.0 | ||||||
| 05 | 13:53 | SW 22 | 16.09 | Overcast | SCT020 OVC045 | 27.2 | 22.8 | 77% | 30 | 75.69 | 1009.5 | ||||||
| 05 | 12:53 | S 20 | 16.09 | Overcast | SCT020 OVC030 | 26.7 | 22.2 | 26.7 | 22.8 | 76% | 29 | 75.72 | 1009.9 | ||||
| 05 | 11:53 | S 20 | 16.09 | Overcast | SCT020 OVC040 | 26.1 | 22.2 | 79% | 28 | 75.74 | 1010.3 | ||||||
| 05 | 10:53 | S 22 | 16.09 | Overcast | BKN020 OVC035 | 26.1 | 21.7 | 77% | 28 | 75.72 | 1009.9 | ||||||
| 05 | 09:53 | S 19 | 16.09 | Mostly Cloudy | SCT015 BKN250 | 25.6 | 22.2 | 82% | 27 | 75.72 | 1009.7 | ||||||
| 05 | 08:53 | S 19 | 16.09 | Overcast | SCT015 OVC030 | 24.4 | 21.7 | 85% | 25 | 75.72 | 1009.9 | ||||||
| 05 | 07:53 | S 13 | 16.09 | Overcast | BKN025 BKN040 OVC250 | 23.3 | 21.1 | 88% | 75.69 | 1009.6 | |||||||
| 05 | 06:53 | S 15 | 14.48 | Overcast | BKN031 OVC250 | 22.8 | 20.6 | 22.8 | 21.1 | 87% | 75.69 | 1009.5 | |||||
| 05 | 05:53 | S 17 | 16.09 | Overcast | BKN031 OVC250 | 22.8 | 20.6 | 87% | 75.67 | 1009.3 | |||||||
| 05 | 04:53 | S 19 | 16.09 | Overcast | BKN032 OVC250 | 22.8 | 20.6 | 87% | 75.64 | 1008.9 | |||||||
| 05 | 03:53 | S 11 | 16.09 | Overcast | BKN035 OVC250 | 22.2 | 20 | 87% | 75.69 | 1009.4 | |||||||
| 05 | 02:53 | S 13 | 16.09 | Overcast | SCT034 OVC250 | 21.7 | 19.4 | 87% | 75.72 | 1009.8 | |||||||
| 05 | 01:53 | S 17 | 16.09 | Overcast | FEW030 SCT100 OVC250 | 21.7 | 18.9 | 84% | 75.74 | 1010.3 | |||||||
| 05 | 00:53 | S 11 | 16.09 | Overcast | FEW030 SCT100 OVC250 | 21.1 | 18.9 | 25 | 21.1 | 87% | 75.79 | 1010.9 | |||||
| 04 | 23:53 | S 13 | 16.09 | Mostly Cloudy | BKN250 | 21.7 | 18.3 | 81% | 75.82 | 1011.2 | |||||||
| 04 | 22:53 | S 11 | 16.09 | Mostly Cloudy | FEW036 BKN250 | 21.7 | 18.3 | 81% | 75.84 | 1011.7 | |||||||
| 04 | 21:53 | S 15 | 16.09 | Mostly Cloudy | SCT036 BKN250 | 22.2 | 17.8 | 76% | 75.87 | 1011.8 | |||||||
| Date | Time (cdt) | Wind (kph) | Vis. (km) | Weather | Sky Cond. | Air | Dwpt | Max. | Min. | Relative Humidity | Wind Chill (°C) | Heat Index (°C) | altimeter (cm) | sea level (mb) | 1 hr | 3 hr | 6 hr |
| 6 hour | |||||||||||||||||
| Temperature (ºC) | Pressure | Precipitation (cm) | |||||||||||||||